Flag for Germany Weather past 2 weeks in Flensburg, Schleswig-Holstein, Germany

Now
57 °F

Sunny.


Feels Like: 55 °F
Forecast: 45 / 57 °F
Wind: 8 mph from East

Location: Schleswig


UV Index: 0 (Low)

Visibility: 16 mi


Pressure: 30.02 "Hg

Humidity: 68%

Dew point: 46 °F

Location of FlensburgLocation

Historic Weather in Flensburg

°F

Flensburg temperature yesterday

Maximum temperature yesterday: 58 °F (at 4:00 PM)
Minimum temperature yesterday: 38 °F (at 6:00 AM)
Average temperature yesterday: 48 °F

Past Weeks' High & Low Weather Summary

 TemperatureHumidityPressure
High62 °F (Apr 7, 6:00 PM)100% (Apr 6, 3:00 AM)30.47 "Hg (Apr 6, 3:00 AM)
Low33 °F (Apr 16, 6:00 AM)31% (Apr 16, 12:00 PM)29.60 "Hg (Apr 8, 9:00 AM)
Average48 °F80%30.01 "Hg
* Reported Apr 5 10:00 AM — Apr 20 10:00 AM, Flensburg, Weather by CustomWeather, © 2014

Note: Actual official high and low records may vary slightly from our data, if they occured in-between our weather recording intervals... More about our weather records

Advertising

Historic Weather Conditions — Data for Previous 24 hours

 ConditionsComfort  
Time TempWeatherWind HumidityBarometerVisibility
10:00 AM
Apr 20
55 °FSunny.5 mph70%30.02 "Hg16 mi
9:00 AM51 °FSunny.6 mph74%30.03 "Hg16 mi
8:00 AM49 °FSunny.6 mph79%30.04 "Hg16 mi
7:00 AM47 °FSunny.6 mph82%30.04 "Hg16 mi
6:00 AM47 °FClear.6 mph80%30.04 "Hg11 mi
5:00 AM47 °FClear.6 mph80%30.06 "Hg9 mi
4:00 AM47 °FClear.6 mph79%30.06 "Hg9 mi
3:00 AM47 °FClear.6 mph82%30.08 "Hg6 mi
2:00 AM48 °FClear.6 mph81%30.09 "Hg6 mi
1:00 AM48 °FClear.6 mph80%30.12 "Hg6 mi
12:00 AM48 °FClear.5 mph85%30.14 "Hg5 mi
11:00 PM
Apr 19
49 °FClear.6 mph81%30.14 "Hg5 mi
10:00 PM50 °FClear.6 mph79%30.14 "Hg6 mi
9:00 PM52 °FClear.6 mph72%30.15 "Hg6 mi
8:00 PM54 °FSunny.6 mph68%30.15 "Hg6 mi
7:00 PM56 °FSunny.6 mph64%30.15 "Hg7 mi
6:00 PM58 °FSunny.6 mph62%30.16 "Hg9 mi
4:00 PM58 °FSunny.6 mph62%30.19 "Hg9 mi
3:00 PM57 °FSunny.6 mph61%30.21 "Hg9 mi
2:00 PM54 °FPassing clouds.6 mph64%30.22 "Hg8 mi
1:00 PM54 °FPassing clouds.6 mph71%30.22 "Hg9 mi
12:00 PM52 °FPassing clouds.6 mph73%30.23 "Hg9 mi
11:00 AM49 °FPassing clouds.6 mph80%30.22 "Hg7 mi
Weather by CustomWeather, © 2014

See weather overview